Home   Weather   Colonia   Past weeks

Flag for Micronesia Past Weather in Colonia, Yap, Micronesia — Yesterday and Last 2 Weeks

Now
81 °F

Mostly cloudy.


Feels Like: 88 °F
Forecast: 81 / 87 °F
Wind: 8 mph from Southeast

Location: Yap Island

Current Time: Apr 25, 2017 at 10:42:10 pm

Latest Report: Apr 25, 2017 at 9:53 pm


Visibility: 12 mi

Pressure: 29.83 "Hg

Humidity: 87%

Dew Point: 77 °F

Location of ColoniaLocation

Past Weather in Colonia — Graph

°F

Colonia Temperature Yesterday

Maximum temperature yesterday: 86 °F (at 2:51 pm)
Minimum temperature yesterday: 79 °F (at 1:56 am)
Average temperature yesterday: 82 °F

High & Low Weather Summary for the Past Weeks

 TemperatureHumidityPressure
High88 °F (Apr 19, 12:50 pm)95% (Apr 11, 6:50 pm)29.91 "Hg (Apr 11, 6:50 pm)
Low75 °F (Apr 12, 11:50 pm)68% (Apr 20, 11:50 am)29.71 "Hg (Apr 24, 3:51 pm)
Average82 °F84%29.82 "Hg
* Reported Apr 10 8:52 pm — Apr 25 8:51 pm, Colonia, Weather by CustomWeather, © 2017

Note: Actual official high and low records may vary slightly from our data, if they occured in-between our weather recording intervals... More about our weather records

Advertising

Colonia Weather History for the Previous 24 Hours

Scroll right to see more
 ConditionsComfort  
Time TempWeatherWind HumidityBarometerVisibility
8:51 pm
Tue, Apr 25
82 °FMostly cloudy.3 mph88%29.82 "Hg12 mi
7:54 pm82 °FBroken clouds.6 mph85%29.80 "Hg12 mi
6:51 pm82 °FBroken clouds.6 mph85%29.78 "Hg12 mi
5:52 pm84 °FBroken clouds.6 mph82%29.76 "Hg12 mi
4:53 pm83 °FBroken clouds.6 mph88%29.75 "Hg12 mi
3:51 pm86 °FBroken clouds.9 mph79%29.75 "Hg12 mi
2:50 pm86 °FBroken clouds.6 mph78%29.76 "Hg12 mi
1:50 pm87 °FBroken clouds.8 mph80%29.78 "Hg12 mi
12:51 pm86 °FBroken clouds.5 mph80%29.80 "Hg12 mi
11:51 am88 °FBroken clouds.8 mph77%29.82 "Hg12 mi
10:51 am86 °FBroken clouds.9 mph81%29.83 "Hg12 mi
9:50 am87 °FBroken clouds.6 mph77%29.83 "Hg12 mi
8:51 am85 °FBroken clouds.8 mph82%29.81 "Hg12 mi
7:52 am82 °FBroken clouds.8 mph85%29.78 "Hg12 mi
6:55 am82 °FPartly cloudy.6 mph87%29.75 "Hg12 mi
5:51 am82 °FPartly cloudy.8 mph88%29.75 "Hg12 mi
4:52 am82 °FPartly cloudy.6 mph88%29.73 "Hg12 mi
3:53 am82 °FPartly cloudy.8 mph90%29.73 "Hg12 mi
2:52 am81 °FPartly cloudy.6 mph91%29.74 "Hg12 mi
1:50 am80 °FPartly cloudy.6 mph92%29.76 "Hg12 mi
12:52 am82 °FPartly cloudy.6 mph89%29.78 "Hg12 mi
11:51 pm
Mon, Apr 24
82 °FPartly cloudy.9 mph88%29.80 "Hg12 mi
10:50 pm81 °FPartly cloudy.6 mph90%29.81 "Hg12 mi
Weather by CustomWeather, © 2017

See weather overviewHow to use our weather pages